Toledo Express Airport Toledo US
ICAO: KTOL
IATA: TOL
Category: Large
Scheduled Services: Yes

Elevation: 683 ft
TransAlt. 18000 ft.

Airport Communications:
APP/DEP:123.975
ATIS:118.75
CLNC DEL:121.75
GND:121.9
180 FW OPS SOF:143.85
TWR:118.1
UNICOM:122.95

KTOL Zoom In..

If you have problems with the map follow the link
https://www.worldairports.se/pages/airport.php?
ICAO=KTOL

Runways:

(A) RW 07 length 10599 ft width 150 ft
ILS 109.70 / hdg 72

(B) RW 16 length 5599 ft width 150 ft
---- / hdg 162

(C) RW 25 length 10599 ft width 150 ft
ILS 108.70 / hdg 252

(D) RW 34 length 5599 ft width 150 ft
---- / hdg 342

Location; KTOL
Day. 19 / Time. 14.52 Zulu
* Altimeter: 30.11
* Temperature: -11° c. -12.2°f.
* Wind from: KTO° Speed L kn.
Dewpoint: -16° c.
Visibility: 10 Statute Miles.
Clouds: Overcast 2200 ft.

KTOL 191452Z 26018KT 10SM OVC022 M11/M16 A3011 RMK AO2 PK WND 25026/1403 SLP207 60000 T11061156 53031 $


Wind From KTO°
Speed L kn.

 
 
jpsmedia worldairports.se 2020   terms of use